�N����,����,�~����,�C��,���x,�C��,����,���ϕ���,�ő�u�ԕ���,�ő厞����,���˗�,�I�_���x,�n�����x,�ő啗���N��,DTYPE
"23/05/20","00:10",0.0,17.5,96.7,1001.7,326.5,2.6,3.4,313.0,0.00,17.0,18.5,"00:04:00",1
"23/05/20","00:20",0.0,17.5,96.7,1001.5,333.4,2.2,3.6,332.8,0.00,17.0,18.6,"00:14:56",1
"23/05/20","00:30",0.0,17.4,96.5,1001.5,333.2,1.8,3.2,338.9,0.00,16.9,18.3,"00:25:52",1
"23/05/20","00:40",0.0,17.4,96.4,1001.5,332.1,2.2,3.6,347.8,0.00,16.9,18.4,"00:30:32",1
"23/05/20","00:50",0.0,17.5,96.3,1001.7,325.8,2.0,3.1,328.2,0.00,16.9,18.4,"00:40:24",1
"23/05/20","01:00",0.0,17.4,96.3,1001.5,312.5,1.5,2.4,324.0,0.00,16.8,18.4,"00:51:36",1
"23/05/20","01:10",0.0,17.4,96.3,1001.5,333.6,1.8,2.7,322.4,0.00,16.8,18.4,"01:09:28",1
"23/05/20","01:20",0.0,17.3,96.3,1001.5,322.5,2.0,3.1,322.7,0.00,16.7,18.5,"01:17:52",1
"23/05/20","01:30",0.0,17.2,96.4,1001.5,329.4,1.8,2.6,326.6,0.00,16.7,18.4,"01:20:32",1
"23/05/20","01:40",0.0,17.2,96.4,1001.5,318.4,1.7,2.8,335.6,0.00,16.7,18.3,"01:33:52",1
"23/05/20","01:50",0.0,17.1,96.3,1001.5,323.6,1.7,2.9,327.2,0.00,16.5,18.4,"01:48:48",1
"23/05/20","02:00",0.0,17.1,96.3,1001.5,309.3,1.2,2.0,314.4,0.00,16.5,18.4,"01:52:00",1
"23/05/20","02:10",0.0,17.1,96.2,1001.2,324.1,1.2,1.9,332.5,0.00,16.5,18.4,"02:05:12",1
"23/05/20","02:20",0.0,16.9,96.2,1001.0,305.5,0.7,1.6,339.0,0.00,16.3,18.4,"02:10:02",1
"23/05/20","02:30",0.0,16.8,96.3,1001.2,341.1,1.1,1.9,345.3,0.00,16.2,18.4,"02:23:04",1
"23/05/20","02:40",0.0,16.5,96.3,1001.7,324.7,0.8,1.4,307.8,0.00,15.9,18.3,"02:30:08",1
"23/05/20","02:50",0.0,16.5,96.4,1001.2,359.9,0.8,2.0,335.2,0.00,16.0,18.3,"02:40:24",1
"23/05/20","03:00",0.0,16.5,96.4,1001.5,339.3,1.2,2.6,347.5,0.00,16.0,18.4,"02:57:36",1
"23/05/20","03:10",0.0,16.5,96.4,1001.2,321.1,1.5,2.2,306.4,0.00,16.0,18.4,"03:04:56",1
"23/05/20","03:20",0.0,16.4,96.4,1001.5,316.1,0.8,2.1,323.4,0.00,15.9,18.4,"03:10:32",1
"23/05/20","03:30",0.0,16.2,96.5,1001.5,318.7,0.8,1.3,263.7,0.00,15.7,18.3,"03:24:32",1
"23/05/20","03:40",0.0,15.9,96.5,1001.5,304.2,0.7,1.3,317.5,0.00,15.4,18.3,"03:33:20",1
"23/05/20","03:50",0.0,15.7,96.6,1001.2,297.7,0.7,1.4,312.2,0.00,15.2,18.3,"03:44:52",1
"23/05/20","04:00",0.0,15.7,96.6,1001.2,308.7,0.6,1.2,333.4,0.00,15.2,18.4,"03:50:16",1
"23/05/20","04:10",0.0,15.9,96.7,1001.2,346.3,0.8,1.7,325.8,0.00,15.4,18.2,"04:02:26",1
"23/05/20","04:20",0.0,15.9,96.7,1001.0,343.4,0.6,1.7,340.1,0.00,15.4,18.1,"04:18:02",1
"23/05/20","04:30",0.0,15.8,96.7,1001.5,332.3,1.0,2.4,339.8,0.00,15.3,18.1,"04:26:34",1
"23/05/20","04:40",0.0,15.7,96.7,1001.5,324.3,1.0,1.6,25.3,0.00,15.2,18.1,"04:33:38",1
"23/05/20","04:50",0.0,15.8,96.8,1001.2,319.1,1.0,1.9,329.9,0.00,15.3,18.2,"04:48:24",1
"23/05/20","05:00",0.0,16.2,96.9,1001.2,335.8,1.7,3.4,305.5,0.00,15.7,17.7,"04:59:44",1
"23/05/20","05:10",0.0,16.3,96.6,1001.7,309.0,1.1,3.2,341.3,0.00,15.8,18.1,"05:00:32",1
"23/05/20","05:20",0.0,16.2,96.7,1001.5,306.1,1.3,3.3,320.3,0.00,15.7,18.0,"05:13:04",1
"23/05/20","05:30",0.0,16.4,96.6,1001.5,320.1,1.0,2.2,322.7,0.00,15.9,17.8,"05:24:08",1
"23/05/20","05:40",0.0,16.0,96.6,1001.5,310.9,0.8,1.6,306.7,0.00,15.5,18.1,"05:32:08",1
"23/05/20","05:50",0.0,15.9,96.8,1001.7,312.5,1.2,1.8,309.0,0.00,15.4,18.0,"05:41:44",1
"23/05/20","06:00",0.0,16.4,96.8,1001.9,302.7,1.3,2.6,325.5,0.00,15.9,17.9,"05:59:04",1
"23/05/20","06:10",0.0,16.7,96.6,1001.9,322.0,1.7,2.6,325.1,0.00,16.2,17.9,"06:09:28",1
"23/05/20","06:20",0.0,17.1,96.3,1002.2,321.1,2.0,3.9,314.7,0.01,16.5,17.7,"06:16:16",1
"23/05/20","06:30",0.0,17.3,95.9,1001.9,319.3,2.5,3.4,324.4,0.03,16.7,17.9,"06:20:56",1
"23/05/20","06:40",0.0,17.7,95.6,1002.6,305.1,1.7,2.7,316.7,0.05,17.0,17.8,"06:34:56",1
"23/05/20","06:50",0.0,17.9,95.0,1001.9,320.2,2.3,4.2,331.1,0.06,17.1,17.8,"06:44:00",1
"23/05/20","07:00",0.0,18.2,94.4,1001.9,324.8,2.1,4.8,337.8,0.09,17.3,17.8,"06:50:16",1
"23/05/20","07:10",0.0,18.7,93.1,1001.9,317.4,2.0,4.2,331.4,0.12,17.6,17.8,"07:09:36",1
"23/05/20","07:20",0.0,19.3,92.0,1001.7,322.9,2.0,3.6,338.6,0.16,18.0,17.9,"07:14:16",1
"23/05/20","07:30",0.0,19.9,89.5,1001.7,334.7,1.5,2.7,328.3,0.17,18.2,17.8,"07:28:56",1
"23/05/20","07:40",0.0,20.4,86.4,1002.4,312.6,1.8,4.4,347.1,0.21,18.1,17.9,"07:32:00",1
"23/05/20","07:50",0.0,20.4,83.5,1002.6,336.8,2.7,4.9,309.0,0.26,17.6,17.7,"07:43:04",1
"23/05/20","08:00",0.0,20.7,81.4,1002.6,343.6,2.1,4.8,357.3,0.24,17.4,17.7,"07:50:16",1
"23/05/20","08:10",0.0,20.5,79.6,1002.6,338.9,2.3,4.7,328.7,0.20,16.9,17.9,"08:09:52",1
"23/05/20","08:20",0.0,20.3,80.1,1003.1,347.8,2.6,4.3,14.8,0.17,16.8,17.7,"08:11:12",1
"23/05/20","08:30",0.0,20.6,79.6,1003.1,352.7,2.6,5.4,332.1,0.25,17.0,17.8,"08:25:12",1
"23/05/20","08:40",0.0,21.5,78.4,1003.1,347.6,1.7,3.5,349.4,0.33,17.6,17.8,"08:30:56",1
"23/05/20","08:50",0.0,21.3,77.1,1003.1,353.4,2.5,6.3,342.2,0.28,17.2,17.9,"08:42:08",1
"23/05/20","09:00",0.0,21.6,76.1,1003.4,354.2,2.7,5.8,347.2,0.38,17.3,17.8,"08:56:16",1
"23/05/20","09:10",0.0,21.4,75.4,1003.4,358.8,2.8,6.4,339.5,0.31,16.9,17.9,"09:03:12",1
"23/05/20","09:20",0.0,21.5,74.7,1003.4,1.5,2.5,6.3,27.6,0.35,16.9,18.1,"09:14:24",1
"23/05/20","09:30",0.0,21.2,75.5,1003.1,356.2,2.7,5.7,51.5,0.19,16.7,18.0,"09:20:56",1
"23/05/20","09:40",0.0,21.4,76.8,1003.1,348.6,2.2,5.2,348.8,0.24,17.2,17.9,"09:33:52",1
"23/05/20","09:50",0.0,21.1,76.4,1003.4,347.6,2.8,6.6,324.2,0.19,16.8,18.0,"09:40:08",1
"23/05/20","10:00",0.0,20.9,76.7,1003.6,1.5,2.5,6.0,314.0,0.15,16.7,18.1,"09:50:56",1
"23/05/20","10:10",0.0,20.7,77.2,1003.4,345.1,2.7,5.2,23.4,0.12,16.6,18.1,"10:06:40",1
"23/05/20","10:20",0.0,20.6,78.0,1003.4,348.1,2.5,4.1,49.3,0.13,16.7,17.9,"10:19:28",1
"23/05/20","10:30",0.0,20.8,78.3,1003.4,344.0,2.5,5.1,341.8,0.19,16.9,18.2,"10:26:56",1
"23/05/20","10:40",0.0,21.2,77.9,1003.4,348.8,2.3,5.0,345.9,0.24,17.2,18.2,"10:34:16",1
"23/05/20","10:50",0.0,21.1,77.2,1003.4,326.4,2.6,6.3,332.0,0.21,17.0,18.2,"10:48:48",1
"23/05/20","11:00",0.0,21.0,77.1,1003.4,325.5,3.0,5.2,316.7,0.18,16.9,18.2,"10:58:40",1
"23/05/20","11:10",0.0,21.3,77.2,1003.4,335.8,2.6,5.4,344.5,0.27,17.2,18.2,"11:08:00",1
"23/05/20","11:20",0.0,21.5,76.1,1003.6,339.5,2.5,4.0,341.5,0.22,17.2,18.4,"11:10:48",1
"23/05/20","11:30",0.0,21.3,76.1,1003.4,346.2,2.7,6.8,335.5,0.15,17.0,18.4,"11:21:28",1
"23/05/20","11:40",0.0,21.2,76.5,1003.4,342.0,3.0,4.9,346.7,0.19,16.9,18.2,"11:33:36",1
"23/05/20","11:50",0.0,21.7,76.2,1003.4,339.5,2.8,5.8,341.3,0.33,17.4,18.4,"11:46:00",1
"23/05/20","12:00",0.0,22.0,75.3,1003.1,343.0,3.0,5.6,321.3,0.42,17.5,18.3,"11:59:36",1
"23/05/20","12:10",0.0,22.3,74.4,1002.9,336.9,3.0,5.0,342.7,0.51,17.6,18.5,"12:08:16",1
"23/05/20","12:20",0.0,21.8,73.6,1002.4,330.8,2.8,5.0,323.7,0.26,16.9,18.3,"12:18:48",1
"23/05/20","12:30",0.0,22.2,75.3,1002.9,331.9,3.4,5.9,338.9,0.51,17.7,18.5,"12:22:56",1
"23/05/20","12:40",0.0,23.1,74.4,1002.6,340.1,3.6,6.2,322.9,0.67,18.3,18.6,"12:30:40",1
"23/05/20","12:50",0.0,23.3,72.1,1002.9,342.6,3.0,5.8,339.8,0.65,18.0,18.7,"12:42:56",1
"23/05/20","13:00",0.0,22.7,70.7,1002.9,343.2,3.9,7.0,348.1,0.61,17.1,18.7,"12:56:40",1
"23/05/20","13:10",0.0,22.2,72.4,1003.1,339.8,3.5,7.1,331.7,0.39,17.0,18.9,"13:01:12",1
"23/05/20","13:20",0.0,21.5,74.1,1003.4,325.3,3.2,6.5,350.8,0.25,16.7,18.8,"13:11:52",1
"23/05/20","13:30",0.0,21.5,75.0,1003.4,347.7,2.3,4.8,349.6,0.23,16.9,18.7,"13:22:48",1
"23/05/20","13:40",0.0,21.8,75.3,1002.9,352.2,2.8,5.4,356.5,0.32,17.3,18.9,"13:34:08",1
"23/05/20","13:50",0.0,22.1,74.6,1003.1,352.8,3.1,5.4,335.9,0.50,17.4,18.8,"13:40:02",1
"23/05/20","14:00",0.0,22.1,72.8,1003.1,348.4,3.9,7.1,344.1,0.58,17.0,18.8,"13:58:00",1
"23/05/20","14:10",0.0,22.2,73.1,1003.1,347.2,3.6,7.3,348.7,0.51,17.2,19.1,"14:05:36",1
"23/05/20","14:20",0.0,21.7,73.0,1002.9,356.9,2.8,5.1,352.1,0.24,16.7,19.2,"14:19:12",1
"23/05/20","14:30",0.0,21.8,73.9,1003.6,343.8,3.9,6.7,347.6,0.40,17.0,19.0,"14:20:16",1
"23/05/20","14:40",0.0,21.7,73.5,1003.6,339.4,4.2,9.0,332.6,0.51,16.8,19.2,"14:39:44",1
"23/05/20","14:50",0.0,22.2,73.0,1003.1,338.4,3.7,8.5,351.8,0.54,17.2,19.1,"14:49:20",1
"23/05/20","15:00",0.0,22.2,72.7,1003.1,345.6,4.2,7.5,336.0,0.54,17.1,19.3,"14:55:12",1
"23/05/20","15:10",0.0,21.4,73.2,1003.4,347.2,4.4,8.0,346.1,0.40,16.4,19.2,"15:08:24",1
"23/05/20","15:20",0.0,21.6,74.0,1003.4,345.5,4.1,8.2,349.5,0.43,16.8,19.2,"15:13:12",1
"23/05/20","15:30",0.0,21.9,73.7,1003.4,338.1,4.4,8.0,336.4,0.48,17.0,19.3,"15:23:12",1
"23/05/20","15:40",0.0,21.7,72.8,1003.4,346.3,4.1,6.4,347.8,0.46,16.6,19.5,"15:34:48",1
"23/05/20","15:50",0.0,21.7,73.1,1003.4,341.7,4.2,8.5,338.6,0.42,16.7,19.6,"15:42:16",1
"23/05/20","16:00",0.0,21.5,72.6,1003.1,346.5,3.9,7.8,346.1,0.37,16.4,19.6,"15:56:00",1
"23/05/20","16:10",0.0,21.2,73.2,1003.1,340.1,3.7,5.9,346.2,0.30,16.3,19.5,"16:03:12",1
"23/05/20","16:20",0.0,20.9,74.1,1003.4,330.0,4.7,8.9,341.3,0.32,16.2,19.6,"16:16:32",1
"23/05/20","16:30",0.0,21.0,74.7,1003.1,337.2,4.6,9.3,323.6,0.30,16.4,19.7,"16:22:08",1
"23/05/20","16:40",0.0,21.4,74.3,1003.4,337.5,4.0,6.5,329.8,0.29,16.7,19.8,"16:30:48",1
"23/05/20","16:50",0.0,21.3,73.4,1003.1,333.6,3.2,7.1,331.4,0.24,16.4,19.8,"16:41:20",1
"23/05/20","17:00",0.0,21.1,72.9,1003.6,320.2,3.5,5.5,331.9,0.23,16.1,19.7,"16:50:02",1
"23/05/20","17:10",0.0,20.8,73.6,1003.1,332.4,4.1,6.6,345.8,0.21,16.0,19.9,"17:05:04",1
"23/05/20","17:20",0.0,20.7,73.5,1003.1,326.6,4.2,7.9,334.7,0.20,15.8,19.7,"17:10:56",1
"23/05/20","17:30",0.0,20.9,73.8,1003.4,329.8,4.0,8.6,337.4,0.18,16.1,19.8,"17:22:40",1
"23/05/20","17:40",0.0,20.8,73.4,1003.6,337.3,3.6,6.7,323.4,0.16,15.9,20.0,"17:39:04",1
"23/05/20","17:50",0.0,20.7,73.5,1003.1,337.5,3.2,5.7,325.6,0.12,15.8,19.8,"17:46:32",1
"23/05/20","18:00",0.0,20.5,74.1,1003.4,343.8,3.2,6.0,353.3,0.05,15.8,19.9,"17:54:16",1
"23/05/20","18:10",0.0,20.1,75.0,1003.1,334.4,3.7,8.0,348.9,0.03,15.6,19.9,"18:04:24",1
"23/05/20","18:20",0.0,19.7,76.1,1003.4,334.7,4.0,7.3,339.1,0.03,15.4,19.9,"18:12:32",1
"23/05/20","18:30",0.0,19.5,77.1,1003.6,334.4,3.9,7.7,346.2,0.02,15.4,19.8,"18:24:40",1
"23/05/20","18:40",0.0,19.3,77.8,1003.6,324.1,4.0,8.2,344.4,0.01,15.4,19.8,"18:33:36",1
"23/05/20","18:50",0.0,19.1,78.4,1003.6,331.9,3.4,6.0,327.4,0.01,15.3,20.0,"18:41:04",1
"23/05/20","19:00",0.0,19.0,79.0,1003.8,332.1,3.2,5.6,334.0,0.01,15.3,19.6,"18:52:40",1
"23/05/20","19:10",0.0,18.8,79.6,1003.8,329.6,2.7,5.1,328.4,0.00,15.2,19.5,"19:02:08",1
"23/05/20","19:20",0.0,18.5,80.5,1004.1,338.3,2.7,6.3,347.2,0.00,15.1,19.7,"19:14:32",1
"23/05/20","19:30",0.0,18.2,81.2,1004.3,327.3,3.5,5.9,341.1,0.00,15.0,19.9,"19:23:28",1
"23/05/20","19:40",0.0,18.1,81.9,1004.3,325.2,3.0,4.7,335.8,0.00,15.0,19.7,"19:37:20",1
"23/05/20","19:50",0.0,17.9,82.4,1004.5,313.7,3.0,5.8,309.7,0.00,14.9,19.7,"19:42:24",1
"23/05/20","20:00",0.0,17.7,83.0,1004.5,328.4,2.8,4.5,321.7,0.00,14.8,19.7,"19:50:48",1
"23/05/20","20:10",0.0,17.5,83.6,1004.8,332.3,2.0,3.6,354.4,0.00,14.7,19.7,"20:00:16",1
"23/05/20","20:20",0.0,17.3,84.5,1004.8,337.2,2.1,3.3,345.3,0.00,14.7,19.7,"20:11:52",1
"23/05/20","20:30",0.0,17.2,85.3,1004.5,331.2,2.3,3.7,341.7,0.00,14.8,19.7,"20:24:32",1
"23/05/20","20:40",0.0,17.1,85.9,1004.5,326.5,2.7,3.7,330.9,0.00,14.8,19.5,"20:35:36",1
"23/05/20","20:50",0.0,16.9,86.5,1004.5,326.6,2.3,3.9,335.1,0.00,14.7,19.4,"20:41:28",1
"23/05/20","21:00",0.0,16.8,87.0,1004.3,325.3,2.2,3.1,334.2,0.00,14.7,19.5,"20:54:24",1
"23/05/20","21:10",0.0,16.5,87.5,1004.5,328.2,2.1,2.9,332.5,0.00,14.5,19.5,"21:00:32",1
"23/05/20","21:20",0.0,16.4,88.1,1004.8,322.5,2.5,3.3,314.1,0.00,14.5,19.4,"21:13:10",1
"23/05/20","21:30",0.0,16.4,88.5,1004.8,323.4,2.7,4.0,311.8,0.00,14.5,19.6,"21:23:22",1
"23/05/20","21:40",0.0,16.3,88.9,1005.0,324.2,2.3,3.3,324.4,0.00,14.5,19.3,"21:37:02",1
"23/05/20","21:50",0.0,16.3,89.2,1004.8,331.3,2.8,4.5,327.3,0.00,14.6,19.2,"21:43:22",1
"23/05/20","22:00",0.0,16.4,89.3,1004.8,330.1,2.3,4.0,337.7,0.00,14.7,19.3,"21:51:54",1
"23/05/20","22:10",0.0,16.2,89.6,1005.0,337.1,1.7,2.9,336.9,0.00,14.5,19.3,"22:04:46",1
"23/05/20","22:20",0.0,16.1,89.8,1005.0,331.6,1.8,2.6,341.6,0.00,14.5,19.3,"22:13:58",1
"23/05/20","22:30",0.0,15.9,90.1,1005.0,337.0,1.8,3.1,338.0,0.00,14.3,19.4,"22:21:28",1
"23/05/20","22:40",0.0,15.8,90.4,1005.2,332.7,2.2,3.2,343.6,0.00,14.3,19.0,"22:33:10",1
"23/05/20","22:50",0.0,15.7,90.7,1005.2,331.7,1.7,2.7,340.3,0.00,14.2,19.2,"22:49:50",1
"23/05/20","23:00",0.0,15.6,90.9,1005.0,329.0,1.8,2.7,351.9,0.00,14.2,18.9,"22:50:18",1
"23/05/20","23:10",0.0,15.5,91.2,1005.2,323.5,1.7,2.4,330.7,0.00,14.1,18.9,"23:02:22",1
"23/05/20","23:20",0.0,15.4,91.5,1005.0,318.4,2.0,2.9,312.0,0.00,14.1,18.9,"23:15:04",1
"23/05/20","23:30",0.0,15.5,91.7,1005.0,320.0,2.3,3.3,318.2,0.00,14.2,19.0,"23:29:34",1
"23/05/20","23:40",0.0,15.3,91.9,1005.0,296.6,2.0,2.9,308.3,0.00,14.0,18.9,"23:37:28",1
"23/05/20","23:50",0.0,15.1,92.1,1005.2,301.2,1.7,2.4,311.8,0.00,13.9,18.8,"23:43:04",1
"23/05/20","24:00",0.0,15.0,92.3,1005.2,308.8,1.5,2.1,325.3,0.00,13.8,19.1,"23:50:38",1
